Regional Weather Roundup
Issued by NWS Midland/Odessa, TX

Skip options and go directly to product.
Home | Oldest Version | Previous Version | Current Version | All | Text Only | Save Text | Print | Product List | Glossary Off

Skip product version selection by date and time.   

124
ASUS44 KMAF 020410
RWRMAF
MIDLAND AREA WEATHER ROUNDUP
NATIONAL WEATHER SERVICE MIDLAND TX
1100 PM CDT MON SEP 01 2014

...IN SOUTHWEST TEXAS AND SOUTHEAST NEW MEXICO...

CITY           SKY/WX    TMP DP  RH WIND       PRES   REMARKS
ALPINE         PTCLDY    82  57  42 S9        30.09R
ANDREWS        FAIR      88  60  38 S16       29.92R
ARTESIA        NOT AVBL
BIG SPRING     CLEAR     88  58  36 SE17      29.91R
CARLSBAD       CLEAR     87  38  17 SW12      29.89R
DRYDEN           N/A     93  61  34 E17G24    29.88R
FORT STOCKTON  CLEAR     86  60  41 SE17G25   29.91R
GUAD PASS      CLEAR     81  38  21 SW12      30.12R
HOBBS          CLEAR     81  39  22 CALM      29.94R
MARFA          MOCLDY    81  52  36 E6        30.09R
MIDLAND AIRPK  CLEAR     89  59  36 S16G22    29.92R
MIDLAND INTL   CLEAR     88  61  40 S17       29.91R
ODESSA         CLEAR     89  60  37 S17G24    29.92R
PECOS          CLEAR     90  58  33 SE14      29.85R
PRESIDIO       FAIR      93  50  23 N9        29.86R
SEMINOLE       CLEAR     87  52  30 S10       29.93R
SNYDER         CLEAR     87  61  41 S10       29.89R
WINK           CLEAR     91  61  36 SE16G25   29.87R
$$
...OTHER STATIONS IN TEXAS...

CITY           SKY/WX    TMP DP  RH WIND       PRES   REMARKS
ABILENE        CLEAR     89  61  38 S15       29.88R
AMARILLO       CLEAR     77  64  64 E15       29.93S
AUSTIN         CLEAR     84  72  67 S12       29.92R
BROWNSVILLE    CLEAR     83  79  88 E8        29.90R
CORPUS CHRISTI PTCLDY    83  77  82 SE12      29.91R
DALLAS FTW     CLEAR     88  66  48 SE15      29.86S
DEL RIO        CLEAR     91  62  37 SE10      29.84R
EL PASO        CLEAR     88  35  15 W6        29.97R
HOUSTON INT    PTCLDY    81  75  83 S5        29.95S
LUBBOCK        CLEAR     85  54  34 S10       29.89R
SAN ANGELO     CLEAR     87  61  41 S12       29.90R
SAN ANTONIO    CLEAR     85  72  65 SE13      29.94R
WACO           CLEAR     87  69  54 S12       29.90R
WICHITA FALLS  NOT AVBL
$$
...OTHER LOCATIONS IN NEW MEXICO...

CITY           SKY/WX    TMP DP  RH WIND       PRES   REMARKS
ALAMAGORDO     CLEAR     75  34  22 E7        29.98S
ALBUQUERQUE    CLEAR     82  38  20 SE3       30.06R
CANNON AFB     CLEAR     80  43  26 SW3       29.97R
CLOVIS           N/A     75  48  38 SW6       29.99R
HOLLOMAN AFB   CLEAR     79  36  21 E7        29.96R
ROSWELL        CLEAR     81  41  24 SW8       29.91R
RUIDOSO        CLEAR     66  36  32 SW9       30.22S
SANTA FE       CLEAR     71  32  23 N12       30.14R
TRUTH OR CONSE CLEAR     81  34  18 S5        30.01R
TUCUMCARI      CLEAR     76  42  29 SW9       29.92R
$$

USA.gov is the U.S. government's official web portal to all federal, state and local government web resources and services.